Location: Elstree
(51.6403°N, 0.2969°W)
Time: 20:41:53
(UTC+00:00)

USA 307 - Pass Details

Date: 03 March 2021
Orbit: 567 x 577 km, 54.0° (Epoch: 16 April)

Event Time Altitude Azimuth Distance (km) Brightness Sun altitude
Rises 19:54:57 0° 281° (W) 2,785 8.0 -20.7°
Reaches altitude 10° 19:57:14 10° 284° (WNW) 1,885 6.7 -21.1°
Maximum altitude 20:01:30 65° 7° (N) 633 3.0 -21.7°
Enters shadow 20:02:01 58° 48° (NE) 670 3.0 -21.8°
